Time,TemperatureF,DewpointF,PressureIn,WindDirection,WindDirectionDegrees,WindSpeedMPH,WindSpeedGustMPH,Humidity,HourlyPrecipIn,Conditions,Clouds,dailyrainin,SolarRadiationWatts/m^2,SoftwareType,DateUTC
2013-06-18 00:02:00,55.0,54.0,30.04,SSW,194,14.0,19.0,95,0.00,,,0.09,0.000000,,2013-06-18 07:02:00,
2013-06-18 00:12:00,55.0,54.0,30.04,South,189,15.0,20.0,95,0.00,,,0.09,0.000000,,2013-06-18 07:12:00,
2013-06-18 00:22:00,55.0,54.0,30.04,SSW,198,14.0,20.0,95,0.00,,,0.09,0.000000,,2013-06-18 07:22:00,
2013-06-18 00:33:00,55.0,54.0,30.04,SSW,196,12.0,18.0,95,0.00,,,0.09,0.000000,,2013-06-18 07:33:00,
2013-06-18 00:42:00,55.0,54.0,30.04,SSW,196,12.0,18.0,95,0.00,,,0.09,0.000000,,2013-06-18 07:42:00,
2013-06-18 00:53:00,55.0,54.0,30.04,South,189,16.0,22.0,95,0.00,,,0.09,0.000000,,2013-06-18 07:53:00,
2013-06-18 01:01:00,55.0,54.0,30.04,South,189,16.0,22.0,95,0.00,,,0.09,0.000000,,2013-06-18 08:01:00,
2013-06-18 01:11:00,54.0,53.0,30.04,SSW,197,18.0,22.0,95,0.00,,,0.09,0.000000,,2013-06-18 08:11:00,
2013-06-18 01:23:00,54.0,53.0,30.04,SSW,199,16.0,22.0,95,0.00,,,0.09,0.000000,,2013-06-18 08:23:00,
2013-06-18 01:32:00,54.0,53.0,30.04,SSW,199,16.0,22.0,95,0.00,,,0.09,0.000000,,2013-06-18 08:32:00,
2013-06-18 01:43:00,54.0,53.0,30.03,South,178,16.0,23.0,95,0.00,,,0.09,0.000000,,2013-06-18 08:43:00,
2013-06-18 01:52:00,54.0,53.0,30.03,SSW,194,16.0,25.0,95,0.00,,,0.09,0.000000,,2013-06-18 08:52:00,
2013-06-18 02:01:00,53.0,52.0,30.03,SSW,192,14.0,21.0,95,0.00,,,0.09,0.000000,,2013-06-18 09:01:00,
2013-06-18 02:11:00,53.0,52.0,30.03,SSW,192,14.0,21.0,95,0.00,,,0.09,0.000000,,2013-06-18 09:11:00,
2013-06-18 02:22:00,53.0,52.0,30.03,South,191,14.0,23.0,95,0.00,,,0.09,0.000000,,2013-06-18 09:22:00,
2013-06-18 02:33:00,53.0,52.0,30.03,South,191,14.0,23.0,95,0.00,,,0.09,0.000000,,2013-06-18 09:33:00,
2013-06-18 02:42:00,53.0,52.0,30.03,South,185,14.0,18.0,96,0.00,,,0.09,0.000000,,2013-06-18 09:42:00,
2013-06-18 02:53:00,53.0,52.0,30.02,South,174,12.0,17.0,95,0.00,,,0.09,0.000000,,2013-06-18 09:53:00,
2013-06-18 03:01:00,53.0,52.0,30.03,South,185,13.0,18.0,96,0.00,,,0.09,0.000000,,2013-06-18 10:01:00,
2013-06-18 03:11:00,53.0,52.0,30.03,South,185,13.0,18.0,96,0.00,,,0.09,0.000000,,2013-06-18 10:11:00,
2013-06-18 03:22:00,53.0,52.0,30.02,SSW,199,17.0,23.0,95,0.00,,,0.09,0.000000,,2013-06-18 10:22:00,
2013-06-18 03:33:00,53.0,52.0,30.02,South,174,13.0,22.0,95,0.00,,,0.09,0.000000,,2013-06-18 10:33:00,
2013-06-18 03:43:00,53.0,52.0,30.02,South,174,13.0,22.0,95,0.00,,,0.09,0.000000,,2013-06-18 10:43:00,
2013-06-18 03:53:00,52.0,51.0,30.01,SSW,195,7.0,13.0,96,0.00,,,0.09,0.000000,,2013-06-18 10:53:00,
2013-06-18 04:02:00,53.0,52.0,30.01,South,178,7.0,12.0,96,0.00,,,0.09,0.000000,,2013-06-18 11:02:00,
2013-06-18 04:11:00,53.0,52.0,30.01,South,178,7.0,12.0,96,0.00,,,0.09,0.000000,,2013-06-18 11:11:00,
2013-06-18 04:22:00,53.0,52.0,30.01,SSW,198,9.0,10.0,95,0.00,,,0.09,0.000000,,2013-06-18 11:22:00,
2013-06-18 04:32:00,53.0,52.0,30.01,SSW,198,9.0,10.0,95,0.00,,,0.09,0.000000,,2013-06-18 11:32:00,
2013-06-18 04:42:00,53.0,52.0,30.01,SSE,166,3.0,8.0,95,0.00,,,0.09,0.000000,,2013-06-18 11:42:00,
2013-06-18 04:52:00,52.0,51.0,30.01,SSE,158,4.0,9.0,95,0.00,,,0.09,0.000000,,2013-06-18 11:52:00,
2013-06-18 05:01:00,52.0,51.0,30.01,SSE,158,4.0,9.0,95,0.00,,,0.09,0.000000,,2013-06-18 12:01:00,
2013-06-18 05:11:00,52.0,51.0,30.01,South,185,4.0,11.0,95,0.00,,,0.09,0.000000,,2013-06-18 12:11:00,
2013-06-18 05:22:00,52.0,51.0,30.01,South,181,5.0,10.0,95,0.00,,,0.09,0.000000,,2013-06-18 12:22:00,
2013-06-18 05:32:00,52.0,51.0,30.01,South,181,5.0,10.0,95,0.00,,,0.09,0.000000,,2013-06-18 12:32:00,
2013-06-18 05:42:00,52.0,51.0,30.01,South,169,6.0,13.0,95,0.00,,,0.09,0.000000,,2013-06-18 12:42:00,
2013-06-18 05:52:00,52.0,50.0,30.01,SSE,164,7.0,18.0,94,0.00,,,0.09,0.000000,,2013-06-18 12:52:00,
2013-06-18 06:01:00,52.0,50.0,30.01,SSE,164,7.0,18.0,94,0.00,,,0.09,0.000000,,2013-06-18 13:01:00,
2013-06-18 06:11:00,52.0,50.0,30.00,SSE,163,10.0,16.0,94,0.00,,,0.09,11.000000,,2013-06-18 13:11:00,
2013-06-18 06:22:00,52.0,50.0,30.00,SSE,152,7.0,14.0,94,0.00,,,0.09,39.000000,,2013-06-18 13:22:00,
2013-06-18 06:33:00,52.0,50.0,30.00,SSE,152,7.0,14.0,94,0.00,,,0.09,39.000000,,2013-06-18 13:33:00,
2013-06-18 06:43:00,53.0,51.0,30.00,South,171,5.0,19.0,93,0.00,,,0.09,53.000000,,2013-06-18 13:43:00,
2013-06-18 06:52:00,53.0,51.0,30.00,South,185,7.0,10.0,93,0.00,,,0.09,35.000000,,2013-06-18 13:52:00,
2013-06-18 07:02:00,53.0,51.0,30.00,South,185,7.0,10.0,93,0.00,,,0.09,35.000000,,2013-06-18 14:02:00,
2013-06-18 07:11:00,53.0,51.0,30.01,South,174,5.0,11.0,93,0.00,,,0.09,25.000000,,2013-06-18 14:11:00,
2013-06-18 07:22:00,54.0,52.0,30.01,South,176,8.0,12.0,92,0.00,,,0.09,67.000000,,2013-06-18 14:22:00,
2013-06-18 07:33:00,54.0,52.0,30.01,South,176,8.0,12.0,92,0.00,,,0.09,67.000000,,2013-06-18 14:33:00,
2013-06-18 07:43:00,54.0,52.0,30.01,South,176,8.0,12.0,92,0.00,,,0.09,67.000000,,2013-06-18 14:43:00,
2013-06-18 07:52:00,54.0,52.0,30.01,South,176,8.0,12.0,92,0.00,,,0.09,67.000000,,2013-06-18 14:52:00,
2013-06-18 08:01:00,54.0,51.0,30.00,SSW,198,14.0,20.0,91,0.00,,,0.09,81.000000,,2013-06-18 15:01:00,
2013-06-18 08:11:00,55.0,52.0,30.00,South,170,10.0,20.0,90,0.00,,,0.09,114.000000,,2013-06-18 15:11:00,
2013-06-18 08:22:00,54.0,51.0,30.00,South,183,9.0,19.0,90,0.00,,,0.09,88.000000,,2013-06-18 15:22:00,
2013-06-18 08:33:00,54.0,51.0,30.00,South,183,9.0,19.0,90,0.00,,,0.09,88.000000,,2013-06-18 15:33:00,
2013-06-18 08:42:00,54.0,51.0,30.00,SSW,194,12.0,18.0,90,0.00,,,0.09,98.000000,,2013-06-18 15:42:00,
2013-06-18 08:52:00,54.0,51.0,30.00,SSW,194,12.0,18.0,90,0.00,,,0.09,98.000000,,2013-06-18 15:52:00,
2013-06-18 09:01:00,55.0,52.0,30.00,South,175,11.0,20.0,89,0.00,,,0.09,466.000000,,2013-06-18 16:01:00,
2013-06-18 09:11:00,54.0,51.0,30.01,South,185,8.0,27.0,90,0.00,,,0.09,165.000000,,2013-06-18 16:11:00,
2013-06-18 09:22:00,55.0,52.0,30.00,SSE,161,14.0,19.0,90,0.00,,,0.09,206.000000,,2013-06-18 16:22:00,
2013-06-18 09:33:00,55.0,52.0,30.00,SSE,161,14.0,19.0,90,0.00,,,0.09,206.000000,,2013-06-18 16:33:00,
2013-06-18 09:43:00,56.0,53.0,30.00,South,185,11.0,17.0,89,0.00,,,0.09,659.000000,,2013-06-18 16:43:00,
2013-06-18 09:52:00,56.0,53.0,30.00,South,185,11.0,17.0,89,0.00,,,0.09,659.000000,,2013-06-18 16:52:00,
2013-06-18 10:01:00,56.0,52.0,30.00,South,171,13.0,20.0,87,0.00,,,0.09,241.000000,,2013-06-18 17:01:00,
2013-06-18 10:11:00,56.0,52.0,30.00,South,177,15.0,22.0,87,0.00,,,0.09,260.000000,,2013-06-18 17:11:00,
2013-06-18 10:22:00,57.0,53.0,30.00,South,181,19.0,27.0,85,0.00,,,0.09,652.000000,,2013-06-18 17:22:00,
2013-06-18 10:33:00,57.0,53.0,30.00,South,181,19.0,27.0,85,0.00,,,0.09,652.000000,,2013-06-18 17:33:00,
2013-06-18 10:43:00,57.0,52.0,30.00,South,189,22.0,31.0,84,0.00,,,0.09,436.000000,,2013-06-18 17:43:00,
2013-06-18 10:53:00,56.0,51.0,30.01,South,181,19.0,26.0,84,0.00,,,0.09,487.000000,,2013-06-18 17:53:00,
2013-06-18 11:01:00,56.0,51.0,30.01,South,181,19.0,26.0,84,0.00,,,0.09,487.000000,,2013-06-18 18:01:00,
2013-06-18 11:11:00,57.0,52.0,30.00,SSW,194,20.0,31.0,83,0.00,,,0.09,362.000000,,2013-06-18 18:11:00,
2013-06-18 11:22:00,57.0,52.0,30.00,SSW,198,24.0,31.0,83,0.00,,,0.09,388.000000,,2013-06-18 18:22:00,
2013-06-18 11:33:00,57.0,52.0,30.00,SSW,198,24.0,31.0,83,0.00,,,0.09,388.000000,,2013-06-18 18:33:00,
2013-06-18 11:42:00,57.0,52.0,30.00,South,173,20.0,30.0,83,0.00,,,0.09,264.000000,,2013-06-18 18:42:00,
2013-06-18 11:53:00,56.0,52.0,30.01,SE,138,18.0,30.0,85,0.00,,,0.09,297.000000,,2013-06-18 18:53:00,
2013-06-18 12:01:00,56.0,52.0,30.01,SE,138,18.0,30.0,85,0.00,,,0.09,297.000000,,2013-06-18 19:01:00,
2013-06-18 12:11:00,56.0,52.0,30.01,South,173,18.0,30.0,86,0.00,,,0.09,316.000000,,2013-06-18 19:11:00,
2013-06-18 12:22:00,56.0,52.0,30.01,South,185,22.0,30.0,88,0.01,,,0.10,504.000000,,2013-06-18 19:22:00,
2013-06-18 12:33:00,56.0,52.0,30.01,South,185,22.0,30.0,88,0.01,,,0.10,504.000000,,2013-06-18 19:33:00,
2013-06-18 12:42:00,56.0,53.0,30.01,SSW,202,19.0,27.0,89,0.01,,,0.10,633.000000,,2013-06-18 19:42:00,
2013-06-18 12:52:00,56.0,53.0,30.01,SSW,202,19.0,27.0,89,0.01,,,0.10,633.000000,,2013-06-18 19:52:00,
2013-06-18 13:01:00,56.0,53.0,30.01,SSW,200,21.0,28.0,89,0.01,,,0.10,469.000000,,2013-06-18 20:01:00,
2013-06-18 13:11:00,57.0,53.0,30.01,South,186,22.0,31.0,88,0.01,,,0.10,496.000000,,2013-06-18 20:11:00,
2013-06-18 13:22:00,58.0,54.0,30.01,South,187,21.0,30.0,86,0.00,,,0.10,645.000000,,2013-06-18 20:22:00,
2013-06-18 13:33:00,58.0,54.0,30.01,South,187,21.0,30.0,86,0.00,,,0.10,645.000000,,2013-06-18 20:33:00,
2013-06-18 13:43:00,57.0,53.0,30.01,SSE,156,19.0,29.0,87,0.00,,,0.10,221.000000,,2013-06-18 20:43:00,
2013-06-18 13:52:00,57.0,53.0,30.01,SSE,156,19.0,29.0,87,0.00,,,0.10,221.000000,,2013-06-18 20:52:00,
2013-06-18 14:01:00,58.0,54.0,30.01,South,185,20.0,29.0,87,0.00,,,0.10,1000.000000,,2013-06-18 21:01:00,
2013-06-18 14:11:00,57.0,53.0,30.01,SSW,202,19.0,25.0,88,0.00,,,0.10,439.000000,,2013-06-18 21:11:00,
2013-06-18 14:22:00,56.0,53.0,30.01,South,187,20.0,25.0,89,0.00,,,0.10,309.000000,,2013-06-18 21:22:00,
2013-06-18 14:33:00,56.0,53.0,30.01,South,187,20.0,25.0,89,0.00,,,0.10,309.000000,,2013-06-18 21:33:00,
2013-06-18 14:43:00,58.0,55.0,30.02,SSW,198,16.0,24.0,91,0.00,,,0.10,564.000000,,2013-06-18 21:43:00,
2013-06-18 14:52:00,57.0,54.0,30.02,SSW,208,17.0,26.0,89,0.00,,,0.10,381.000000,,2013-06-18 21:52:00,
2013-06-18 15:01:00,57.0,54.0,30.02,SSW,208,17.0,26.0,89,0.00,,,0.10,381.000000,,2013-06-18 22:01:00,
2013-06-18 15:11:00,57.0,54.0,30.02,South,187,16.0,27.0,91,0.01,,,0.11,417.000000,,2013-06-18 22:11:00,
2013-06-18 15:22:00,58.0,55.0,30.01,South,189,19.0,27.0,91,0.01,,,0.11,,,2013-06-18 22:22:00,
2013-06-18 15:34:00,58.0,55.0,30.01,South,189,19.0,27.0,91,0.01,,,0.11,,,2013-06-18 22:34:00,
2013-06-18 15:42:00,59.0,56.0,30.01,SSW,197,18.0,28.0,89,0.01,,,0.11,935.000000,,2013-06-18 22:42:00,
2013-06-18 15:53:00,59.0,56.0,30.01,SSW,197,18.0,28.0,89,0.01,,,0.11,935.000000,,2013-06-18 22:53:00,
2013-06-18 16:01:00,59.0,55.0,30.01,SSW,209,18.0,25.0,88,0.01,,,0.11,854.000000,,2013-06-18 23:01:00,
2013-06-18 16:11:00,59.0,55.0,30.01,South,187,18.0,24.0,88,0.00,,,0.11,898.000000,,2013-06-18 23:11:00,
2013-06-18 16:23:00,59.0,55.0,30.02,SSW,198,15.0,24.0,87,0.00,,,0.11,613.000000,,2013-06-18 23:23:00,
2013-06-18 16:35:00,59.0,55.0,30.02,SSW,198,15.0,24.0,87,0.00,,,0.11,613.000000,,2013-06-18 23:35:00,
2013-06-18 16:44:00,58.0,54.0,30.01,South,186,16.0,21.0,87,0.00,,,0.11,527.000000,,2013-06-18 23:44:00,
2013-06-18 16:53:00,58.0,54.0,30.01,South,186,16.0,21.0,87,0.00,,,0.11,527.000000,,2013-06-18 23:53:00,
2013-06-18 17:01:00,57.0,53.0,30.01,SSW,195,15.0,22.0,88,0.00,,,0.11,334.000000,,2013-06-19 00:01:00,
2013-06-18 17:11:00,58.0,55.0,30.01,SSW,200,15.0,22.0,89,0.00,,,0.11,432.000000,,2013-06-19 00:11:00,
2013-06-18 17:22:00,58.0,55.0,30.01,SSW,196,15.0,21.0,89,0.00,,,0.11,476.000000,,2013-06-19 00:22:00,
2013-06-18 17:33:00,58.0,55.0,30.01,SSW,196,15.0,21.0,89,0.00,,,0.11,476.000000,,2013-06-19 00:33:00,
2013-06-18 17:43:00,57.0,54.0,30.01,South,185,14.0,21.0,89,0.00,,,0.11,137.000000,,2013-06-19 00:43:00,
2013-06-18 17:53:00,57.0,54.0,30.01,South,185,14.0,21.0,89,0.00,,,0.11,137.000000,,2013-06-19 00:53:00,
2013-06-18 18:01:00,57.0,54.0,30.01,South,190,18.0,22.0,90,0.00,,,0.11,285.000000,,2013-06-19 01:01:00,
2013-06-18 18:11:00,57.0,54.0,30.01,SSW,199,17.0,21.0,90,0.00,,,0.11,336.000000,,2013-06-19 01:11:00,
2013-06-18 18:22:00,57.0,54.0,30.01,SSW,199,17.0,21.0,90,0.00,,,0.11,336.000000,,2013-06-19 01:22:00,
2013-06-18 18:32:00,57.0,54.0,30.01,SSW,199,17.0,21.0,90,0.00,,,0.11,336.000000,,2013-06-19 01:32:00,
2013-06-18 18:42:00,57.0,54.0,30.01,SSW,199,17.0,21.0,90,0.00,,,0.11,336.000000,,2013-06-19 01:42:00,
2013-06-18 18:53:00,57.0,54.0,30.01,SSW,199,17.0,21.0,90,0.00,,,0.11,336.000000,,2013-06-19 01:53:00,
2013-06-18 19:01:00,58.0,55.0,30.00,SSW,200,15.0,20.0,89,0.00,,,0.04,506.000000,,2013-06-19 02:01:00,
2013-06-18 19:11:00,58.0,55.0,30.00,SSW,200,15.0,20.0,89,0.00,,,0.04,506.000000,,2013-06-19 02:11:00,
2013-06-18 19:21:00,58.0,55.0,30.00,SSW,200,15.0,20.0,89,0.00,,,0.04,506.000000,,2013-06-19 02:21:00,
2013-06-18 19:32:00,58.0,55.0,30.00,SSW,200,15.0,20.0,89,0.00,,,0.04,506.000000,,2013-06-19 02:32:00,
2013-06-18 19:42:00,57.0,54.0,30.00,SSW,198,12.0,16.0,89,0.00,,,0.03,244.000000,,2013-06-19 02:42:00,
2013-06-18 19:52:00,57.0,54.0,30.00,South,189,12.0,17.0,89,0.00,,,0.03,209.000000,,2013-06-19 02:52:00,
2013-06-18 20:01:00,57.0,54.0,30.00,South,189,12.0,17.0,89,0.00,,,0.03,209.000000,,2013-06-19 03:01:00,
2013-06-18 20:11:00,57.0,54.0,30.00,South,181,14.0,18.0,90,0.00,,,0.03,199.000000,,2013-06-19 03:11:00,
2013-06-18 20:21:00,57.0,54.0,30.00,South,181,14.0,18.0,90,0.00,,,0.03,199.000000,,2013-06-19 03:21:00,
2013-06-18 20:32:00,56.0,53.0,30.00,South,187,11.0,15.0,89,0.00,,,0.02,32.000000,,2013-06-19 03:32:00,
2013-06-18 20:42:00,56.0,53.0,30.00,South,187,11.0,15.0,89,0.00,,,0.02,32.000000,,2013-06-19 03:42:00,
2013-06-18 20:51:00,55.0,52.0,29.99,SSW,200,9.0,14.0,90,0.00,,,0.02,11.000000,,2013-06-19 03:51:00,
2013-06-18 20:52:00,56.0,53.0,29.99,South,185,10.0,16.0,90,0.00,,,0.02,16.000000,,2013-06-19 03:52:00,
2013-06-18 21:01:00,56.0,53.0,29.99,South,185,10.0,16.0,90,0.00,,,0.02,16.000000,,2013-06-19 04:01:00,
2013-06-18 21:11:00,55.0,52.0,29.99,SSW,200,9.0,14.0,90,0.00,,,0.02,11.000000,,2013-06-19 04:11:00,
2013-06-18 21:22:00,55.0,52.0,29.99,SSW,200,9.0,14.0,90,0.00,,,0.02,11.000000,,2013-06-19 04:22:00,
2013-06-18 21:32:00,55.0,52.0,29.99,SSW,200,9.0,14.0,90,0.00,,,0.02,11.000000,,2013-06-19 04:32:00,
2013-06-18 21:42:00,55.0,52.0,29.99,SSW,200,9.0,14.0,90,0.00,,,0.02,11.000000,,2013-06-19 04:42:00,
2013-06-18 22:11:00,55.0,52.0,30.00,SSW,193,7.0,11.0,91,0.00,,,0.02,0.000000,,2013-06-19 05:11:00,
2013-06-18 22:22:00,55.0,52.0,30.00,South,190,9.0,13.0,91,0.00,,,0.02,0.000000,,2013-06-19 05:22:00,
2013-06-18 22:32:00,55.0,52.0,30.00,South,190,9.0,13.0,91,0.00,,,0.02,0.000000,,2013-06-19 05:32:00,
2013-06-18 22:42:00,55.0,52.0,30.00,South,181,10.0,14.0,91,0.00,,,0.02,0.000000,,2013-06-19 05:42:00,
2013-06-18 22:52:00,55.0,52.0,29.99,SSE,167,10.0,14.0,91,0.00,,,0.02,0.000000,,2013-06-19 05:52:00,
2013-06-18 23:01:00,55.0,52.0,29.99,SSE,167,10.0,14.0,91,0.00,,,0.02,0.000000,,2013-06-19 06:01:00,
2013-06-18 23:11:00,55.0,52.0,29.99,South,191,7.0,10.0,91,0.00,,,0.02,0.000000,,2013-06-19 06:11:00,
2013-06-18 23:21:00,55.0,52.0,29.99,South,191,7.0,10.0,91,0.00,,,0.02,0.000000,,2013-06-19 06:21:00,
2013-06-18 23:33:00,55.0,52.0,29.99,South,189,9.0,12.0,91,0.00,,,0.02,0.000000,,2013-06-19 06:33:00,
2013-06-18 23:42:00,54.0,51.0,30.00,SSE,167,4.0,10.0,90,0.00,,,0.02,0.000000,,2013-06-19 06:42:00,
2013-06-18 23:52:00,54.0,51.0,30.00,SSW,195,4.0,7.0,91,0.00,,,0.02,0.000000,,2013-06-19 06:52:00,